Location: Zagreb
(45.8000°N, 16.0000°E)
Time: 04:31:19
(UTC+02:00)

A-11 Canister half - Visible Passes

Search period start: 18 May 2026 00:00
Search period end: 28 May 2026 00:00
Orbit: 1523 x 1684 km, 47.3° (Epoch: 16 May)

Date Brightness Start Highest point End Pass type
(mag) Time Alt. Az. Time Alt. Az. Time Alt. Az.
18 May 10.3 01:18:26 10° W 01:24:32 20° WSW 01:24:32 20° WSW visible
18 May 9.2 20:44:55 10° W 20:54:41 86° NNE 21:04:48 10° E visible
18 May 9.2 22:50:02 10° WNW 22:59:37 59° SSW 23:05:14 28° SSE visible
19 May 10.2 00:56:23 10° W 01:03:14 21° SW 01:03:29 21° SW visible
19 May 9.2 22:28:10 10° WNW 22:37:47 61° SSW 22:44:13 24° SE visible
20 May 10.2 00:34:21 10° W 00:41:27 23° SW 00:42:28 22° SW visible
20 May 9.2 22:06:19 10° WNW 22:15:56 63° SSW 22:23:14 20° SE visible
21 May 10.1 00:12:20 10° W 00:19:40 24° SW 00:21:30 23° SW visible
21 May 9.2 21:44:27 10° WNW 21:54:04 65° SSW 22:02:19 16° SE visible
21 May 10.1 23:50:21 10° W 23:57:52 25° SW 00:00:34 23° SSW visible
22 May 9.3 21:22:35 10° WNW 21:32:13 67° SSW 21:41:26 13° SE visible
22 May 10.1 23:28:23 10° W 23:36:05 27° SW 23:39:41 22° SSW visible
23 May 9.3 21:00:44 10° WNW 21:10:22 69° SSW 21:20:17 10° SE visible
23 May 10.1 23:06:25 10° WNW 23:14:18 28° SW 23:18:51 20° S visible
24 May 10.1 22:44:28 10° WNW 22:52:30 30° SW 22:58:04 18° S visible
25 May 10.1 22:22:32 10° WNW 22:30:42 31° SW 22:37:18 15° S visible
26 May 10.1 22:00:36 10° WNW 22:08:54 33° SW 22:16:36 12° S visible
27 May 10.1 21:38:41 10° WNW 21:47:06 34° SW 21:55:43 10° SSE visible
